TimeEST,TemperatureF,Dew PointF,Humidity,Sea Level PressureIn,VisibilityMPH,Wind Direction,Wind SpeedMPH,Gust SpeedMPH,PrecipitationIn,Events,Conditions,WindDirDegrees,DateUTC
12:54 AM,15.1,9.0,77,30.53,10.0,ENE,8.1,-,N/A,,Overcast,60,2014-01-09 05:54:00
1:54 AM,15.1,8.1,74,30.53,10.0,ENE,5.8,-,N/A,,Overcast,70,2014-01-09 06:54:00
2:54 AM,15.1,8.1,74,30.53,10.0,ENE,8.1,-,N/A,,Overcast,70,2014-01-09 07:54:00
3:54 AM,15.1,9.0,77,30.53,10.0,East,6.9,-,N/A,,Overcast,80,2014-01-09 08:54:00
4:54 AM,15.1,9.0,77,30.52,10.0,East,8.1,-,N/A,,Overcast,90,2014-01-09 09:54:00
5:54 AM,15.1,9.0,77,30.52,10.0,East,8.1,-,N/A,,Overcast,80,2014-01-09 10:54:00
6:54 AM,15.1,10.0,80,30.51,10.0,East,8.1,-,N/A,,Overcast,100,2014-01-09 11:54:00
7:54 AM,15.1,10.0,80,30.51,10.0,East,9.2,-,N/A,,Scattered Clouds,100,2014-01-09 12:54:00
8:54 AM,16.0,10.9,81,30.51,7.0,East,9.2,-,N/A,,Mostly Cloudy,100,2014-01-09 13:54:00
9:54 AM,18.0,14.0,84,30.49,6.0,East,6.9,-,N/A,,Overcast,80,2014-01-09 14:54:00
10:45 AM,19.9,15.1,81,30.44,1.8,East,6.9,-,0.00,Snow,Snow,100,2014-01-09 15:45:00
10:54 AM,19.9,16.0,85,30.48,1.8,East,6.9,-,0.00,Snow,Snow,100,2014-01-09 15:54:00
11:01 AM,19.9,16.0,85,30.44,0.8,ESE,5.8,-,0.00,Snow,Snow,110,2014-01-09 16:01:00
11:43 AM,21.0,18.0,88,30.42,1.8,ESE,9.2,-,0.00,Snow,Snow,110,2014-01-09 16:43:00
11:51 AM,21.2,17.6,86,30.41,2.0,SE,6.9,-,0.00,Snow,Snow,130,2014-01-09 16:51:00
11:54 AM,21.0,18.0,88,30.44,1.8,SE,6.9,-,0.00,Snow,Snow,130,2014-01-09 16:54:00
12:04 PM,21.0,18.0,88,30.40,1.0,ESE,8.1,-,0.00,Snow,Snow,120,2014-01-09 17:04:00
12:44 PM,21.9,19.0,89,30.38,2.5,SE,8.1,-,0.00,Snow,Snow,130,2014-01-09 17:44:00
12:54 PM,21.9,19.0,89,30.40,2.5,ESE,5.8,-,0.00,Snow,Snow,120,2014-01-09 17:54:00
1:44 PM,24.1,19.9,84,30.33,2.5,ESE,8.1,-,0.00,Snow,Light Snow,110,2014-01-09 18:44:00
1:54 PM,24.1,19.9,84,30.35,2.5,ESE,8.1,-,0.00,Snow,Light Snow,110,2014-01-09 18:54:00
1:56 PM,24.1,19.9,84,30.32,3.0,ESE,8.1,-,0.00,Snow,Light Snow,110,2014-01-09 18:56:00
2:06 PM,24.1,21.0,88,30.32,2.0,ESE,6.9,-,0.00,Snow,Light Snow,120,2014-01-09 19:06:00
2:23 PM,25.0,21.0,85,30.31,2.0,ESE,5.8,-,0.00,Snow,Light Snow,110,2014-01-09 19:23:00
2:50 PM,24.8,21.2,86,30.31,1.5,ESE,8.1,-,0.00,Snow,Light Snow,120,2014-01-09 19:50:00
2:54 PM,25.0,21.9,88,30.34,1.2,ESE,6.9,-,0.00,Snow,Light Snow,110,2014-01-09 19:54:00
3:54 PM,27.0,24.1,89,30.33,3.0,East,5.8,-,0.00,,Overcast,100,2014-01-09 20:54:00
4:54 PM,28.0,24.1,85,30.33,7.0,ESE,5.8,-,N/A,,Overcast,120,2014-01-09 21:54:00
6:54 PM,28.9,26.1,89,30.32,2.0,SE,8.1,-,0.00,Snow,Light Snow,140,2014-01-09 23:54:00
7:10 PM,28.9,27.0,92,30.29,2.0,SE,10.4,-,0.01,Snow,Light Snow,140,2014-01-10 00:10:00
7:37 PM,28.9,27.0,92,30.28,3.0,SE,8.1,-,0.01,Snow,Light Snow,140,2014-01-10 00:37:00
7:54 PM,28.9,27.0,92,30.31,2.0,SE,8.1,-,0.01,Snow,Light Snow,140,2014-01-10 00:54:00
8:51 PM,28.4,28.4,100,30.26,5.0,SSE,10.4,-,0.00,,Overcast,160,2014-01-10 01:51:00
8:54 PM,28.9,28.0,96,30.28,5.0,SSE,10.4,-,0.00,,Overcast,150,2014-01-10 01:54:00
9:02 PM,30.0,28.0,92,30.25,3.0,South,8.1,-,0.00,Snow,Light Snow,170,2014-01-10 02:02:00
9:14 PM,30.0,28.0,92,30.25,3.0,SSE,9.2,-,0.00,Snow,Light Snow,160,2014-01-10 02:14:00
9:27 PM,30.0,28.0,92,30.25,5.0,South,8.1,-,0.00,,Overcast,170,2014-01-10 02:27:00
9:36 PM,30.0,28.0,92,30.24,6.0,SSE,5.8,-,0.00,,Overcast,160,2014-01-10 02:36:00
9:44 PM,30.0,28.0,92,30.24,8.0,South,6.9,-,0.00,,Overcast,170,2014-01-10 02:44:00
9:54 PM,30.0,28.0,92,30.26,10.0,South,8.1,-,0.00,,Overcast,170,2014-01-10 02:54:00
10:54 PM,30.0,28.0,92,30.25,10.0,South,5.8,-,N/A,,Overcast,170,2014-01-10 03:54:00
11:13 PM,30.0,28.0,92,30.22,10.0,South,6.9,-,N/A,,Overcast,180,2014-01-10 04:13:00
11:54 PM,30.9,28.0,89,30.22,10.0,South,8.1,-,N/A,,Overcast,190,2014-01-10 04:54:00